Time,TemperatureF,DewpointF,PressureIn,WindDirection,WindDirectionDegrees,WindSpeedMPH,WindSpeedGustMPH,Humidity,HourlyPrecipIn,Conditions,Clouds,dailyrainin,SoftwareType,DateUTC
2013-01-13 00:00:00,42.2,41.7,30.11,SSE,163,0.0,0.0,98,0.00,,SKC,0.00,VWS V14.01,2013-01-13 05:00:00,
2013-01-13 00:02:00,42.1,41.6,30.11,SSE,163,0.0,2.0,98,0.00,,SKC,0.00,VWS V14.01,2013-01-13 05:02:00,
2013-01-13 00:03:00,42.2,41.7,30.11,SSE,163,0.0,1.0,98,0.00,,SKC,0.00,VWS V14.01,2013-01-13 05:03:00,
2013-01-13 00:08:00,42.0,41.5,30.11,SSE,163,0.0,0.0,98,0.00,,SKC,0.00,VWS V14.01,2013-01-13 05:08:00,
2013-01-13 00:13:00,41.9,41.4,30.11,SSE,163,2.0,4.0,98,0.00,,SKC,0.00,VWS V14.01,2013-01-13 05:13:00,
2013-01-13 00:18:00,41.9,41.4,30.11,SSE,163,4.0,4.0,98,0.00,,SKC,0.00,VWS V14.01,2013-01-13 05:18:00,
2013-01-13 00:23:00,41.9,41.4,30.11,SSE,164,0.0,0.0,98,0.00,,SKC,0.00,VWS V14.01,2013-01-13 05:23:00,
2013-01-13 00:28:00,41.9,41.4,30.11,SSE,163,3.0,5.0,98,0.00,,SKC,0.00,VWS V14.01,2013-01-13 05:28:00,
2013-01-13 00:33:00,42.0,41.5,30.12,SSE,163,0.0,4.0,98,0.00,,SKC,0.00,VWS V14.01,2013-01-13 05:33:00,
2013-01-13 00:38:00,42.0,41.5,30.12,SW,229,2.0,5.0,98,0.00,,SKC,0.00,VWS V14.01,2013-01-13 05:38:00,
2013-01-13 00:43:00,42.0,41.5,30.11,SW,229,3.0,4.0,98,0.00,,SKC,0.00,VWS V14.01,2013-01-13 05:43:00,
2013-01-13 00:48:00,42.0,41.5,30.11,SW,224,4.0,5.0,98,0.00,,SKC,0.00,VWS V14.01,2013-01-13 05:48:00,
2013-01-13 00:53:00,41.9,41.4,30.11,SW,216,4.0,4.0,98,0.00,,SKC,0.00,VWS V14.01,2013-01-13 05:53:00,
2013-01-13 00:58:00,41.8,41.3,30.11,SW,216,1.0,4.0,98,0.00,,SKC,0.00,VWS V14.01,2013-01-13 05:58:00,
2013-01-13 01:03:00,41.7,41.2,30.11,SW,217,0.0,2.0,98,0.00,,SKC,0.00,VWS V14.01,2013-01-13 06:03:00,
2013-01-13 01:08:00,41.6,41.1,30.11,SW,214,0.0,0.0,98,0.00,,SKC,0.00,VWS V14.01,2013-01-13 06:08:00,
2013-01-13 01:13:00,41.7,41.2,30.11,SW,214,0.0,0.0,98,0.00,,SKC,0.00,VWS V14.01,2013-01-13 06:13:00,
2013-01-13 01:18:00,41.7,41.2,30.12,WSW,239,0.0,4.0,98,0.00,,SKC,0.00,VWS V14.01,2013-01-13 06:18:00,
2013-01-13 01:23:00,41.8,41.3,30.11,WSW,239,0.0,0.0,98,0.00,,SKC,0.00,VWS V14.01,2013-01-13 06:23:00,
2013-01-13 01:28:00,41.9,41.4,30.11,South,189,0.0,0.0,98,0.00,,SKC,0.00,VWS V14.01,2013-01-13 06:28:00,
2013-01-13 01:33:00,41.9,41.4,30.11,South,189,1.0,5.0,98,0.00,,SKC,0.00,VWS V14.01,2013-01-13 06:33:00,
2013-01-13 01:38:00,41.9,41.4,30.11,South,188,0.0,3.0,98,0.00,,SKC,0.00,VWS V14.01,2013-01-13 06:38:00,
2013-01-13 01:43:00,41.9,41.4,30.11,South,188,0.0,0.0,98,0.00,,SKC,0.00,VWS V14.01,2013-01-13 06:43:00,
2013-01-13 01:48:00,41.9,41.4,30.11,South,188,0.0,0.0,98,0.00,,SKC,0.00,VWS V14.01,2013-01-13 06:48:00,
2013-01-13 01:53:00,42.0,41.5,30.10,South,169,5.0,6.0,98,0.00,,SKC,0.00,VWS V14.01,2013-01-13 06:53:00,
2013-01-13 01:59:00,42.1,41.6,30.10,SSE,157,5.0,6.0,98,0.00,,SKC,0.00,VWS V14.01,2013-01-13 06:59:00,
2013-01-13 02:04:00,42.2,41.9,30.10,SE,145,4.0,6.0,99,0.00,,SKC,0.00,VWS V14.01,2013-01-13 07:04:00,
2013-01-13 02:09:00,42.0,41.5,30.11,SSE,159,5.0,6.0,98,0.00,,SKC,0.00,VWS V14.01,2013-01-13 07:09:00,
2013-01-13 02:14:00,41.9,41.4,30.11,South,181,2.0,4.0,98,0.00,,SKC,0.00,VWS V14.01,2013-01-13 07:14:00,
2013-01-13 02:19:00,41.9,41.4,30.11,SSE,159,1.0,4.0,98,0.00,,SKC,0.00,VWS V14.01,2013-01-13 07:19:00,
2013-01-13 02:24:00,41.8,41.3,30.11,SSE,163,1.0,5.0,98,0.00,,SKC,0.00,VWS V14.01,2013-01-13 07:24:00,
2013-01-13 02:29:00,41.7,41.4,30.11,SSE,164,3.0,4.0,99,0.00,,SKC,0.00,VWS V14.01,2013-01-13 07:29:00,
2013-01-13 02:34:00,41.7,41.4,30.11,SSE,164,4.0,4.0,99,0.00,,SKC,0.00,VWS V14.01,2013-01-13 07:34:00,
2013-01-13 02:39:00,41.7,41.4,30.11,SSE,167,4.0,5.0,99,0.00,,SKC,0.00,VWS V14.01,2013-01-13 07:39:00,
2013-01-13 02:44:00,41.7,41.4,30.11,South,177,4.0,5.0,99,0.00,,SKC,0.00,VWS V14.01,2013-01-13 07:44:00,
2013-01-13 02:49:00,41.7,41.4,30.11,SSE,167,3.0,5.0,99,0.00,,SKC,0.00,VWS V14.01,2013-01-13 07:49:00,
2013-01-13 02:54:00,41.7,41.4,30.11,South,171,3.0,5.0,99,0.00,,SKC,0.00,VWS V14.01,2013-01-13 07:54:00,
2013-01-13 02:59:00,41.7,41.4,30.10,SSE,159,4.0,6.0,99,0.00,,SKC,0.00,VWS V14.01,2013-01-13 07:59:00,
2013-01-13 03:04:00,41.7,41.4,30.10,SSE,159,5.0,5.0,99,0.00,,SKC,0.00,VWS V14.01,2013-01-13 08:04:00,
2013-01-13 03:09:00,41.7,41.4,30.10,SSE,154,5.0,6.0,99,0.00,,SKC,0.00,VWS V14.01,2013-01-13 08:09:00,
2013-01-13 03:14:00,41.6,41.3,30.10,SSE,155,5.0,6.0,99,0.00,,SKC,0.00,VWS V14.01,2013-01-13 08:14:00,
2013-01-13 03:19:00,41.5,41.2,30.10,SSE,155,3.0,5.0,99,0.00,,SKC,0.00,VWS V14.01,2013-01-13 08:19:00,
2013-01-13 03:24:00,41.5,41.2,30.09,SE,146,4.0,5.0,99,0.00,,SKC,0.00,VWS V14.01,2013-01-13 08:24:00,
2013-01-13 03:29:00,41.4,41.1,30.09,SE,138,4.0,5.0,99,0.00,,SKC,0.00,VWS V14.01,2013-01-13 08:29:00,
2013-01-13 03:34:00,41.4,41.1,30.09,SE,141,3.0,4.0,99,0.00,,SKC,0.00,VWS V14.01,2013-01-13 08:34:00,
2013-01-13 03:39:00,41.4,41.1,30.09,SE,141,3.0,4.0,99,0.00,,SKC,0.00,VWS V14.01,2013-01-13 08:39:00,
2013-01-13 03:44:00,41.4,41.1,30.09,SSE,153,0.0,0.0,99,0.00,,SKC,0.00,VWS V14.01,2013-01-13 08:44:00,
2013-01-13 03:49:00,41.4,41.1,30.10,South,169,0.0,0.0,99,0.00,,SKC,0.00,VWS V14.01,2013-01-13 08:49:00,
2013-01-13 03:54:00,41.4,41.1,30.10,South,169,0.0,0.0,99,0.00,,SKC,0.00,VWS V14.01,2013-01-13 08:54:00,
2013-01-13 03:59:00,41.4,41.1,30.09,SSE,158,5.0,5.0,99,0.00,,SKC,0.00,VWS V14.01,2013-01-13 08:59:00,
2013-01-13 04:04:00,41.5,41.2,30.08,SSE,153,5.0,6.0,99,0.00,,SKC,0.00,VWS V14.01,2013-01-13 09:04:00,
2013-01-13 04:09:00,41.6,41.3,30.08,SSE,154,6.0,6.0,99,0.00,,SKC,0.00,VWS V14.01,2013-01-13 09:09:00,
2013-01-13 04:14:00,41.6,41.3,30.08,SE,132,4.0,6.0,99,0.00,,SKC,0.00,VWS V14.01,2013-01-13 09:14:00,
2013-01-13 04:19:00,41.6,41.3,30.07,SE,126,4.0,6.0,99,0.00,,SKC,0.00,VWS V14.01,2013-01-13 09:19:00,
2013-01-13 04:25:00,41.6,41.3,30.08,SE,127,4.0,5.0,99,0.00,,SKC,0.00,VWS V14.01,2013-01-13 09:25:00,
2013-01-13 04:30:00,41.8,41.5,30.08,SE,134,5.0,6.0,99,0.00,,SKC,0.00,VWS V14.01,2013-01-13 09:30:00,
2013-01-13 04:35:00,41.9,41.6,30.08,SSE,149,7.0,7.0,99,0.00,,SKC,0.00,VWS V14.01,2013-01-13 09:35:00,
2013-01-13 04:40:00,42.0,41.7,30.07,SSE,151,4.0,5.0,99,0.00,,SKC,0.00,VWS V14.01,2013-01-13 09:40:00,
2013-01-13 04:45:00,42.0,41.7,30.08,SSE,148,5.0,6.0,99,0.00,,SKC,0.00,VWS V14.01,2013-01-13 09:45:00,
2013-01-13 04:50:00,42.1,41.8,30.08,SE,140,6.0,6.0,99,0.00,,SKC,0.00,VWS V14.01,2013-01-13 09:50:00,
2013-01-13 04:55:00,42.1,41.8,30.08,SE,145,4.0,7.0,99,0.00,,SKC,0.00,VWS V14.01,2013-01-13 09:55:00,
2013-01-13 05:00:00,42.2,41.9,30.08,SE,140,4.0,5.0,99,0.00,,SKC,0.00,VWS V14.01,2013-01-13 10:00:00,
2013-01-13 05:05:00,42.1,41.8,30.08,SE,129,4.0,5.0,99,0.00,,SKC,0.00,VWS V14.01,2013-01-13 10:05:00,
2013-01-13 05:10:00,41.9,41.6,30.07,SE,124,5.0,7.0,99,0.00,,SKC,0.00,VWS V14.01,2013-01-13 10:10:00,
2013-01-13 05:15:00,41.8,41.5,30.07,SE,130,4.0,7.0,99,0.00,,SKC,0.00,VWS V14.01,2013-01-13 10:15:00,
2013-01-13 05:20:00,41.9,41.6,30.07,SE,128,5.0,6.0,99,0.00,,SKC,0.00,VWS V14.01,2013-01-13 10:20:00,
2013-01-13 05:25:00,41.9,41.6,30.07,SE,133,5.0,5.0,99,0.00,,SKC,0.00,VWS V14.01,2013-01-13 10:25:00,
2013-01-13 05:30:00,41.9,41.6,30.08,SE,133,4.0,6.0,99,0.00,,SKC,0.00,VWS V14.01,2013-01-13 10:30:00,
2013-01-13 05:35:00,41.9,41.6,30.08,SE,133,3.0,5.0,99,0.00,,SKC,0.00,VWS V14.01,2013-01-13 10:35:00,
2013-01-13 05:40:00,42.0,41.7,30.08,SE,141,7.0,7.0,99,0.00,,SKC,0.00,VWS V14.01,2013-01-13 10:40:00,
2013-01-13 05:45:00,42.0,41.7,30.08,SSE,149,4.0,7.0,99,0.00,,SKC,0.00,VWS V14.01,2013-01-13 10:45:00,
2013-01-13 05:50:00,42.0,41.7,30.08,SE,146,5.0,6.0,99,0.00,,SKC,0.00,VWS V14.01,2013-01-13 10:50:00,
2013-01-13 05:55:00,42.1,41.8,30.08,SE,146,4.0,6.0,99,0.00,,SKC,0.00,VWS V14.01,2013-01-13 10:55:00,
2013-01-13 06:00:00,42.1,41.8,30.08,SE,146,0.0,4.0,99,0.00,,SKC,0.00,VWS V14.01,2013-01-13 11:00:00,
2013-01-13 06:05:00,42.2,41.9,30.08,SE,146,4.0,4.0,99,0.00,,SKC,0.00,VWS V14.01,2013-01-13 11:05:00,
2013-01-13 06:10:00,42.2,41.9,30.08,SE,146,3.0,3.0,99,0.00,,SKC,0.00,VWS V14.01,2013-01-13 11:10:00,
2013-01-13 06:15:00,42.3,42.0,30.07,SE,146,4.0,5.0,99,0.00,,SKC,0.00,VWS V14.01,2013-01-13 11:15:00,
2013-01-13 06:20:00,42.3,42.0,30.08,SE,146,5.0,6.0,99,0.00,,SKC,0.00,VWS V14.01,2013-01-13 11:20:00,
2013-01-13 06:25:00,42.3,42.0,30.08,SSE,147,4.0,6.0,99,0.00,,SKC,0.00,VWS V14.01,2013-01-13 11:25:00,
2013-01-13 06:30:00,42.4,42.1,30.08,SE,144,5.0,6.0,99,0.00,,SKC,0.00,VWS V14.01,2013-01-13 11:30:00,
2013-01-13 06:35:00,42.4,42.1,30.08,SE,141,6.0,7.0,99,0.00,,SKC,0.00,VWS V14.01,2013-01-13 11:35:00,
2013-01-13 06:40:00,42.4,42.1,30.08,SSE,151,6.0,9.0,99,0.00,,,0.00,VWS V14.01,2013-01-13 11:40:00,
2013-01-13 06:45:00,42.4,42.1,30.08,SSE,152,7.0,7.0,99,0.00,,,0.00,VWS V14.01,2013-01-13 11:45:00,
2013-01-13 06:50:00,42.4,42.1,30.08,SSE,147,6.0,9.0,99,0.00,,,0.00,VWS V14.01,2013-01-13 11:50:00,
2013-01-13 06:55:00,42.4,42.1,30.08,SE,141,6.0,9.0,99,0.00,,,0.00,VWS V14.01,2013-01-13 11:55:00,
2013-01-13 07:00:00,42.3,42.0,30.08,SE,140,8.0,9.0,99,0.00,,,0.00,VWS V14.01,2013-01-13 12:00:00,
2013-01-13 07:05:00,42.2,41.9,30.08,SE,140,7.0,8.0,99,0.00,,,0.00,VWS V14.01,2013-01-13 12:05:00,
2013-01-13 07:10:00,42.2,41.9,30.08,SE,140,6.0,7.0,99,0.00,,,0.00,VWS V14.01,2013-01-13 12:10:00,
2013-01-13 07:15:00,42.2,41.9,30.08,SE,136,5.0,7.0,99,0.00,,,0.00,VWS V14.01,2013-01-13 12:15:00,
2013-01-13 07:20:00,42.2,41.9,30.08,SE,136,6.0,7.0,99,0.00,,,0.00,VWS V14.01,2013-01-13 12:20:00,
2013-01-13 07:25:00,42.2,41.9,30.08,SE,145,5.0,6.0,99,0.00,,,0.00,VWS V14.01,2013-01-13 12:25:00,
2013-01-13 07:30:00,42.1,41.8,30.08,SSE,148,6.0,6.0,99,0.00,,,0.00,VWS V14.01,2013-01-13 12:30:00,
2013-01-13 07:35:00,42.1,41.8,30.08,SSE,148,4.0,5.0,99,0.00,,,0.00,VWS V14.01,2013-01-13 12:35:00,
2013-01-13 07:40:00,42.3,42.0,30.09,SSE,155,4.0,7.0,99,0.00,,,0.00,VWS V14.01,2013-01-13 12:40:00,
2013-01-13 07:45:00,42.5,42.2,30.09,SSE,157,3.0,6.0,99,0.00,,,0.00,VWS V14.01,2013-01-13 12:45:00,
2013-01-13 07:50:00,42.7,42.4,30.09,SSE,159,7.0,7.0,99,0.00,,,0.00,VWS V14.01,2013-01-13 12:50:00,
2013-01-13 07:55:00,42.8,42.5,30.09,SSE,159,5.0,7.0,99,0.00,,,0.00,VWS V14.01,2013-01-13 12:55:00,
2013-01-13 08:00:00,42.9,42.6,30.09,SSE,152,7.0,8.0,99,0.00,,,0.00,VWS V14.01,2013-01-13 13:00:00,
2013-01-13 08:05:00,42.9,42.6,30.09,SSE,150,7.0,7.0,99,0.00,,,0.00,VWS V14.01,2013-01-13 13:05:00,
2013-01-13 08:10:00,43.0,42.7,30.09,SSE,148,6.0,9.0,99,0.00,,,0.00,VWS V14.01,2013-01-13 13:10:00,
2013-01-13 08:15:00,43.1,42.8,30.09,SSE,148,6.0,7.0,99,0.00,,,0.00,VWS V14.01,2013-01-13 13:15:00,
2013-01-13 08:21:00,43.1,42.8,30.09,SSE,149,6.0,8.0,99,0.00,,,0.00,VWS V14.01,2013-01-13 13:21:00,
2013-01-13 08:26:00,43.2,42.9,30.09,SSE,153,6.0,9.0,99,0.00,,,0.00,VWS V14.01,2013-01-13 13:26:00,
2013-01-13 08:31:00,43.3,43.0,30.09,SSE,150,9.0,10.0,99,0.00,,,0.00,VWS V14.01,2013-01-13 13:31:00,
2013-01-13 08:36:00,43.3,43.0,30.09,SSE,154,9.0,9.0,99,0.00,,,0.00,VWS V14.01,2013-01-13 13:36:00,
2013-01-13 08:41:00,43.3,43.0,30.09,SSE,158,6.0,9.0,99,0.00,,,0.00,VWS V14.01,2013-01-13 13:41:00,
2013-01-13 08:46:00,43.3,43.0,30.09,SSE,156,7.0,8.0,99,0.00,,,0.00,VWS V14.01,2013-01-13 13:46:00,
2013-01-13 08:51:00,43.3,43.0,30.09,SSE,167,6.0,8.0,99,0.00,,,0.00,VWS V14.01,2013-01-13 13:51:00,
2013-01-13 08:56:00,43.4,43.1,30.09,SSE,162,5.0,8.0,99,0.00,,,0.00,VWS V14.01,2013-01-13 13:56:00,
2013-01-13 09:01:00,43.6,43.3,30.10,South,169,4.0,7.0,99,0.00,,,0.00,VWS V14.01,2013-01-13 14:01:00,
2013-01-13 09:06:00,43.7,43.4,30.10,South,173,5.0,7.0,99,0.00,,,0.00,VWS V14.01,2013-01-13 14:06:00,
2013-01-13 09:11:00,43.9,43.6,30.10,South,172,6.0,10.0,99,0.00,,,0.00,VWS V14.01,2013-01-13 14:11:00,
2013-01-13 09:16:00,43.9,43.6,30.09,SSE,159,11.0,11.0,99,0.00,,,0.00,VWS V14.01,2013-01-13 14:16:00,
2013-01-13 09:21:00,44.0,43.7,30.10,South,171,7.0,12.0,99,0.00,,,0.00,VWS V14.01,2013-01-13 14:21:00,
2013-01-13 09:26:00,44.0,43.7,30.11,South,175,4.0,10.0,99,0.00,,,0.00,VWS V14.01,2013-01-13 14:26:00,
2013-01-13 09:31:00,44.0,43.7,30.10,SSE,161,7.0,11.0,99,0.00,,,0.00,VWS V14.01,2013-01-13 14:31:00,
2013-01-13 09:36:00,43.9,43.6,30.10,SSE,160,6.0,10.0,99,0.00,,,0.00,VWS V14.01,2013-01-13 14:36:00,
2013-01-13 09:41:00,43.9,43.6,30.10,South,187,6.0,10.0,99,0.00,,,0.00,VWS V14.01,2013-01-13 14:41:00,
2013-01-13 09:46:00,44.0,43.7,30.10,South,174,9.0,11.0,99,0.00,,,0.00,VWS V14.01,2013-01-13 14:46:00,
2013-01-13 09:51:00,44.0,43.7,30.10,South,179,6.0,10.0,99,0.00,,,0.00,VWS V14.01,2013-01-13 14:51:00,
2013-01-13 09:56:00,44.0,43.7,30.10,South,180,5.0,9.0,99,0.00,,,0.00,VWS V14.01,2013-01-13 14:56:00,
2013-01-13 10:01:00,44.1,43.8,30.10,SSW,197,3.0,7.0,99,0.00,,,0.00,VWS V14.01,2013-01-13 15:01:00,
2013-01-13 10:06:00,44.3,44.0,30.11,South,182,6.0,8.0,99,0.00,,,0.00,VWS V14.01,2013-01-13 15:06:00,
2013-01-13 10:11:00,44.3,44.0,30.10,South,173,8.0,12.0,99,0.00,,,0.00,VWS V14.01,2013-01-13 15:11:00,
2013-01-13 10:16:00,44.3,44.0,30.11,SSE,154,6.0,12.0,99,0.00,,,0.00,VWS V14.01,2013-01-13 15:16:00,
2013-01-13 10:21:00,44.3,44.0,30.10,SSE,151,5.0,10.0,99,0.00,,,0.00,VWS V14.01,2013-01-13 15:21:00,
2013-01-13 10:26:00,44.5,44.2,30.10,SSE,165,10.0,10.0,99,0.00,,,0.00,VWS V14.01,2013-01-13 15:26:00,
2013-01-13 10:31:00,44.5,44.2,30.10,SSE,168,7.0,9.0,99,0.00,,,0.00,VWS V14.01,2013-01-13 15:31:00,
2013-01-13 10:36:00,44.6,44.3,30.10,SSE,167,8.0,10.0,99,0.00,,,0.00,VWS V14.01,2013-01-13 15:36:00,
2013-01-13 10:41:00,44.6,44.3,30.10,SSE,163,7.0,9.0,99,0.00,,,0.00,VWS V14.01,2013-01-13 15:41:00,
2013-01-13 10:46:00,44.7,44.4,30.09,South,171,4.0,10.0,99,0.00,,,0.00,VWS V14.01,2013-01-13 15:46:00,
2013-01-13 10:51:00,44.9,44.9,30.10,SSE,163,7.0,10.0,100,0.00,,,0.00,VWS V14.01,2013-01-13 15:51:00,
2013-01-13 10:56:00,45.1,44.8,30.11,South,178,2.0,7.0,99,0.00,,,0.00,VWS V14.01,2013-01-13 15:56:00,
2013-01-13 11:01:00,45.5,45.5,30.11,SSW,210,0.0,6.0,100,0.00,,,0.00,VWS V14.01,2013-01-13 16:01:00,
2013-01-13 11:06:00,45.6,45.6,30.10,SSE,166,7.0,10.0,100,0.00,,,0.00,VWS V14.01,2013-01-13 16:06:00,
2013-01-13 11:11:00,45.5,45.5,30.10,SSE,166,7.0,7.0,100,0.00,,,0.00,VWS V14.01,2013-01-13 16:11:00,
2013-01-13 11:16:00,45.5,45.5,30.10,SSE,158,3.0,7.0,100,0.00,,,0.00,VWS V14.01,2013-01-13 16:16:00,
2013-01-13 11:21:00,45.6,45.6,30.11,SW,222,3.0,6.0,100,0.00,,,0.00,VWS V14.01,2013-01-13 16:21:00,
2013-01-13 11:26:00,45.6,45.3,30.11,SSW,198,3.0,5.0,99,0.00,,,0.00,VWS V14.01,2013-01-13 16:26:00,
2013-01-13 11:31:00,45.6,45.3,30.10,South,188,4.0,5.0,99,0.00,,,0.00,VWS V14.01,2013-01-13 16:31:00,
2013-01-13 11:36:00,45.8,45.5,30.10,South,171,5.0,5.0,99,0.00,,,0.00,VWS V14.01,2013-01-13 16:36:00,
2013-01-13 11:41:00,45.8,45.5,30.10,South,177,4.0,4.0,99,0.00,,,0.00,VWS V14.01,2013-01-13 16:41:00,
2013-01-13 11:46:00,45.9,45.6,30.10,SSE,161,2.0,4.0,99,0.00,,,0.00,VWS V14.01,2013-01-13 16:46:00,
2013-01-13 11:51:00,46.0,46.0,30.09,South,169,3.0,5.0,100,0.00,,,0.00,VWS V14.01,2013-01-13 16:51:00,
2013-01-13 11:56:00,46.0,46.0,30.09,SSE,163,5.0,6.0,100,0.00,,,0.00,VWS V14.01,2013-01-13 16:56:00,
2013-01-13 12:01:00,45.9,45.6,30.08,SSE,165,4.0,5.0,99,0.00,,,0.00,VWS V14.01,2013-01-13 17:01:00,
2013-01-13 12:06:00,45.7,45.4,30.08,SSE,165,3.0,5.0,99,0.00,,,0.00,VWS V14.01,2013-01-13 17:06:00,
2013-01-13 12:11:00,45.7,45.4,30.08,SSE,166,6.0,6.0,99,0.00,,,0.00,VWS V14.01,2013-01-13 17:11:00,
2013-01-13 12:16:00,45.6,45.3,30.07,SSE,158,4.0,7.0,99,0.00,,,0.00,VWS V14.01,2013-01-13 17:16:00,
2013-01-13 12:21:00,45.4,45.1,30.06,SSE,158,6.0,7.0,99,0.00,,,0.00,VWS V14.01,2013-01-13 17:21:00,
2013-01-13 12:26:00,45.2,44.9,30.06,SSE,161,6.0,7.0,99,0.00,,,0.00,VWS V14.01,2013-01-13 17:26:00,
2013-01-13 12:31:00,45.2,44.9,30.05,SSE,159,5.0,7.0,99,0.00,,,0.00,VWS V14.01,2013-01-13 17:31:00,
2013-01-13 12:36:00,45.5,45.5,30.05,SSE,154,7.0,9.0,100,0.00,,,0.00,VWS V14.01,2013-01-13 17:36:00,
2013-01-13 12:41:00,45.8,45.5,30.04,SSE,155,7.0,11.0,99,0.00,,,0.00,VWS V14.01,2013-01-13 17:41:00,
2013-01-13 12:46:00,46.1,46.1,30.05,SSE,162,7.0,11.0,100,0.00,,,0.00,VWS V14.01,2013-01-13 17:46:00,
2013-01-13 12:51:00,46.3,46.0,30.04,SSE,148,5.0,7.0,99,0.00,,,0.00,VWS V14.01,2013-01-13 17:51:00,
2013-01-13 12:56:00,46.5,46.2,30.05,SSE,151,5.0,6.0,99,0.00,,,0.00,VWS V14.01,2013-01-13 17:56:00,
2013-01-13 13:01:00,46.4,46.1,30.04,SSE,152,9.0,10.0,99,0.00,,,0.00,VWS V14.01,2013-01-13 18:01:00,
2013-01-13 13:06:00,46.5,46.2,30.04,SE,138,5.0,7.0,99,0.00,,,0.00,VWS V14.01,2013-01-13 18:06:00,
2013-01-13 13:11:00,46.2,45.9,30.03,SE,140,6.0,7.0,99,0.00,,,0.00,VWS V14.01,2013-01-13 18:11:00,
2013-01-13 13:16:00,45.9,45.6,30.03,SSE,151,7.0,7.0,99,0.00,,,0.00,VWS V14.01,2013-01-13 18:16:00,
2013-01-13 13:21:00,46.0,45.7,30.03,SSE,159,4.0,6.0,99,0.00,,,0.00,VWS V14.01,2013-01-13 18:21:00,
2013-01-13 13:26:00,46.3,46.3,30.03,SSE,163,6.0,7.0,100,0.00,,,0.00,VWS V14.01,2013-01-13 18:26:00,
2013-01-13 13:31:00,46.6,46.6,30.03,SSE,153,6.0,7.0,100,0.00,,,0.00,VWS V14.01,2013-01-13 18:31:00,
2013-01-13 13:36:00,46.8,46.8,30.03,SSE,160,5.0,7.0,100,0.00,,,0.00,VWS V14.01,2013-01-13 18:36:00,
2013-01-13 13:41:00,47.1,47.1,30.03,SSE,164,5.0,7.0,100,0.00,,,0.00,VWS V14.01,2013-01-13 18:41:00,
2013-01-13 13:47:00,46.9,46.9,30.03,SSE,161,5.0,6.0,100,0.00,,,0.00,VWS V14.01,2013-01-13 18:47:00,
2013-01-13 13:52:00,46.9,46.9,30.03,SSE,153,5.0,6.0,100,0.00,,,0.00,VWS V14.01,2013-01-13 18:52:00,
2013-01-13 13:57:00,46.9,46.9,30.03,SSE,157,6.0,6.0,100,0.00,,,0.00,VWS V14.01,2013-01-13 18:57:00,
2013-01-13 14:02:00,47.0,47.0,30.03,SSE,160,8.0,10.0,100,0.00,,,0.00,VWS V14.01,2013-01-13 19:02:00,
2013-01-13 14:07:00,47.2,46.9,30.03,SSE,157,6.0,8.0,99,0.00,,,0.00,VWS V14.01,2013-01-13 19:07:00,
2013-01-13 14:12:00,47.1,46.8,30.03,SSE,154,5.0,6.0,99,0.00,,,0.00,VWS V14.01,2013-01-13 19:12:00,
2013-01-13 14:17:00,47.0,46.7,30.03,SSE,150,4.0,7.0,99,0.00,,,0.00,VWS V14.01,2013-01-13 19:17:00,
2013-01-13 14:22:00,47.0,46.7,30.03,SSE,151,6.0,6.0,99,0.00,,,0.00,VWS V14.01,2013-01-13 19:22:00,
2013-01-13 14:27:00,47.2,46.9,30.03,SSE,148,7.0,9.0,99,0.00,,,0.00,VWS V14.01,2013-01-13 19:27:00,
2013-01-13 14:32:00,47.5,47.5,30.02,SSE,148,7.0,10.0,100,0.00,,,0.00,VWS V14.01,2013-01-13 19:32:00,
2013-01-13 14:37:00,47.4,47.4,30.02,SSE,151,6.0,7.0,100,0.00,,,0.00,VWS V14.01,2013-01-13 19:37:00,
2013-01-13 14:42:00,47.3,47.3,30.03,SSE,153,4.0,6.0,100,0.00,,,0.00,VWS V14.01,2013-01-13 19:42:00,
2013-01-13 14:47:00,47.3,47.3,30.03,SSE,155,6.0,6.0,100,0.00,,,0.00,VWS V14.01,2013-01-13 19:47:00,
2013-01-13 14:52:00,47.2,47.2,30.03,SSE,157,6.0,6.0,100,0.00,,,0.00,VWS V14.01,2013-01-13 19:52:00,
2013-01-13 14:57:00,47.1,46.8,30.02,SE,146,6.0,7.0,99,0.00,,,0.00,VWS V14.01,2013-01-13 19:57:00,
2013-01-13 15:02:00,47.0,46.7,30.02,SSE,150,6.0,8.0,99,0.00,,,0.00,VWS V14.01,2013-01-13 20:02:00,
2013-01-13 15:07:00,47.0,46.7,30.02,SSE,150,5.0,7.0,99,0.00,,,0.00,VWS V14.01,2013-01-13 20:07:00,
2013-01-13 15:12:00,47.1,46.8,30.02,SSE,152,5.0,6.0,99,0.00,,,0.00,VWS V14.01,2013-01-13 20:12:00,
2013-01-13 15:17:00,47.3,47.3,30.03,SSE,157,3.0,5.0,100,0.00,,,0.00,VWS V14.01,2013-01-13 20:17:00,
2013-01-13 15:22:00,47.3,47.3,30.03,SSE,157,3.0,4.0,100,0.00,,,0.00,VWS V14.01,2013-01-13 20:22:00,
2013-01-13 15:27:00,47.4,47.4,30.04,SSE,157,0.0,0.0,100,0.00,,,0.00,VWS V14.01,2013-01-13 20:27:00,
2013-01-13 15:32:00,47.4,47.4,30.03,SSE,157,4.0,4.0,100,0.00,,,0.00,VWS V14.01,2013-01-13 20:32:00,
2013-01-13 15:37:00,47.3,47.3,30.03,SSE,157,0.0,3.0,100,0.00,,,0.00,VWS V14.01,2013-01-13 20:37:00,
2013-01-13 15:42:00,47.1,47.1,30.03,South,191,3.0,3.0,100,0.00,,,0.00,VWS V14.01,2013-01-13 20:42:00,
2013-01-13 15:47:00,47.0,46.7,30.03,South,183,0.0,0.0,99,0.00,,,0.00,VWS V14.01,2013-01-13 20:47:00,
2013-01-13 15:52:00,47.0,46.7,30.03,SSE,158,5.0,5.0,99,0.00,,,0.00,VWS V14.01,2013-01-13 20:52:00,
2013-01-13 15:57:00,47.0,46.7,30.02,SSE,158,4.0,5.0,99,0.00,,,0.00,VWS V14.01,2013-01-13 20:57:00,
2013-01-13 16:02:00,46.9,46.6,30.02,SSE,154,4.0,4.0,99,0.00,,,0.00,VWS V14.01,2013-01-13 21:02:00,
2013-01-13 16:07:00,46.8,46.5,30.02,SSE,154,0.0,0.0,99,0.00,,,0.00,VWS V14.01,2013-01-13 21:07:00,
2013-01-13 16:12:00,46.9,46.9,30.03,SSE,154,0.0,0.0,100,0.00,,,0.00,VWS V14.01,2013-01-13 21:12:00,
2013-01-13 16:17:00,47.0,46.7,30.03,SSE,154,0.0,0.0,99,0.00,,,0.00,VWS V14.01,2013-01-13 21:17:00,
2013-01-13 16:22:00,47.0,46.7,30.03,SSE,154,0.0,0.0,99,0.00,,,0.00,VWS V14.01,2013-01-13 21:22:00,
2013-01-13 16:27:00,47.0,46.7,30.03,SSE,154,0.0,0.0,99,0.00,,,0.00,VWS V14.01,2013-01-13 21:27:00,
2013-01-13 16:32:00,46.8,46.5,30.03,SSE,154,0.0,0.0,99,0.00,,,0.00,VWS V14.01,2013-01-13 21:32:00,
2013-01-13 16:37:00,46.7,46.7,30.03,SSE,154,0.0,0.0,100,0.00,,,0.00,VWS V14.01,2013-01-13 21:37:00,
2013-01-13 16:42:00,46.5,46.2,30.02,SSE,154,0.0,0.0,99,0.00,,,0.00,VWS V14.01,2013-01-13 21:42:00,
2013-01-13 16:47:00,46.7,46.7,30.02,SSE,154,3.0,4.0,100,0.00,,,0.00,VWS V14.01,2013-01-13 21:47:00,
2013-01-13 16:52:00,46.6,46.6,30.02,SSE,154,0.0,2.0,100,0.00,,,0.00,VWS V14.01,2013-01-13 21:52:00,
2013-01-13 16:57:00,46.5,46.2,30.01,SSE,154,0.0,0.0,99,0.00,,,0.00,VWS V14.01,2013-01-13 21:57:00,
2013-01-13 17:02:00,46.3,46.0,30.01,SSE,154,3.0,4.0,99,0.00,,,0.00,VWS V14.01,2013-01-13 22:02:00,
2013-01-13 17:07:00,46.3,46.0,30.01,SSE,155,5.0,5.0,99,0.00,,,0.00,VWS V14.01,2013-01-13 22:07:00,
2013-01-13 17:12:00,46.6,46.3,30.01,SSE,157,5.0,6.0,99,0.00,,,0.00,VWS V14.01,2013-01-13 22:12:00,
2013-01-13 17:17:00,46.9,46.9,30.01,SSE,154,5.0,7.0,100,0.00,,,0.00,VWS V14.01,2013-01-13 22:17:00,
2013-01-13 17:22:00,47.0,46.7,30.01,SSE,154,6.0,7.0,99,0.00,,,0.00,VWS V14.01,2013-01-13 22:22:00,
2013-01-13 17:27:00,47.1,46.8,30.01,SSE,157,4.0,6.0,99,0.00,,,0.00,VWS V14.01,2013-01-13 22:27:00,
2013-01-13 17:33:00,47.1,46.8,30.01,SSE,157,5.0,6.0,99,0.00,,,0.00,VWS V14.01,2013-01-13 22:33:00,
2013-01-13 17:38:00,47.1,46.8,30.01,SSE,159,5.0,5.0,99,0.00,,,0.00,VWS V14.01,2013-01-13 22:38:00,
2013-01-13 17:43:00,47.0,46.7,30.01,SSE,150,3.0,6.0,99,0.00,,,0.00,VWS V14.01,2013-01-13 22:43:00,
2013-01-13 17:48:00,46.9,46.6,30.01,SSE,152,5.0,5.0,99,0.00,,,0.00,VWS V14.01,2013-01-13 22:48:00,
2013-01-13 17:53:00,47.0,46.7,30.01,SSE,153,4.0,6.0,99,0.00,,,0.00,VWS V14.01,2013-01-13 22:53:00,
2013-01-13 17:58:00,47.2,46.9,30.02,SSE,155,4.0,5.0,99,0.00,,,0.00,VWS V14.01,2013-01-13 22:58:00,
2013-01-13 18:03:00,47.3,47.3,30.02,SSE,155,3.0,4.0,100,0.00,,,0.00,VWS V14.01,2013-01-13 23:03:00,
2013-01-13 18:08:00,47.3,47.3,30.02,SSE,155,0.0,0.0,100,0.00,,,0.00,VWS V14.01,2013-01-13 23:08:00,
2013-01-13 18:13:00,47.3,47.3,30.02,SSE,156,0.0,0.0,100,0.00,,,0.00,VWS V14.01,2013-01-13 23:13:00,
2013-01-13 18:18:00,47.4,47.4,30.02,SSE,156,0.0,3.0,100,0.00,,,0.00,VWS V14.01,2013-01-13 23:18:00,
2013-01-13 18:23:00,47.5,47.5,30.02,SSE,156,2.0,3.0,100,0.00,,,0.00,VWS V14.01,2013-01-13 23:23:00,
2013-01-13 18:28:00,47.5,47.5,30.02,SSE,156,0.0,0.0,100,0.00,,,0.00,VWS V14.01,2013-01-13 23:28:00,
2013-01-13 18:33:00,47.6,47.6,30.01,SSE,156,0.0,0.0,100,0.00,,,0.00,VWS V14.01,2013-01-13 23:33:00,
2013-01-13 18:38:00,47.4,47.4,30.02,SSE,156,1.0,4.0,100,0.00,,,0.00,VWS V14.01,2013-01-13 23:38:00,
2013-01-13 18:43:00,47.3,47.3,30.02,SSE,156,0.0,0.0,100,0.00,,,0.00,VWS V14.01,2013-01-13 23:43:00,
2013-01-13 18:48:00,47.2,47.2,30.02,SSE,156,0.0,0.0,100,0.00,,,0.00,VWS V14.01,2013-01-13 23:48:00,
2013-01-13 18:53:00,47.1,46.8,30.01,SSE,157,4.0,4.0,99,0.00,,,0.00,VWS V14.01,2013-01-13 23:53:00,
2013-01-13 18:58:00,47.1,46.8,30.01,SSE,157,0.0,2.0,99,0.00,,,0.00,VWS V14.01,2013-01-13 23:58:00,
2013-01-13 19:03:00,47.0,46.7,30.01,SSE,157,3.0,3.0,99,0.00,,,0.00,VWS V14.01,2013-01-14 00:03:00,
2013-01-13 19:08:00,46.8,46.8,30.01,SSE,157,4.0,4.0,100,0.00,,,0.00,VWS V14.01,2013-01-14 00:08:00,
2013-01-13 19:13:00,46.8,46.8,30.01,SSE,157,4.0,4.0,100,0.00,,,0.00,VWS V14.01,2013-01-14 00:13:00,
2013-01-13 19:18:00,46.7,46.7,30.00,SSE,157,3.0,3.0,100,0.00,,,0.00,VWS V14.01,2013-01-14 00:18:00,
2013-01-13 19:23:00,46.6,46.6,30.00,SSE,157,2.0,4.0,100,0.00,,,0.00,VWS V14.01,2013-01-14 00:23:00,
2013-01-13 19:28:00,46.6,46.6,30.00,SSE,157,0.0,3.0,100,0.00,,,0.00,VWS V14.01,2013-01-14 00:28:00,
2013-01-13 19:33:00,46.6,46.6,30.00,SSE,152,3.0,4.0,100,0.00,,,0.00,VWS V14.01,2013-01-14 00:33:00,
2013-01-13 19:38:00,46.7,46.7,30.00,SSE,152,0.0,0.0,100,0.00,,,0.00,VWS V14.01,2013-01-14 00:38:00,
2013-01-13 19:43:00,46.6,46.6,30.00,SSE,152,0.0,0.0,100,0.00,,,0.00,VWS V14.01,2013-01-14 00:43:00,
2013-01-13 19:48:00,46.7,46.7,30.00,SSE,152,0.0,0.0,100,0.00,,,0.00,VWS V14.01,2013-01-14 00:48:00,
2013-01-13 19:53:00,46.8,46.8,30.00,SSE,152,1.0,5.0,100,0.00,,,0.00,VWS V14.01,2013-01-14 00:53:00,
2013-01-13 19:58:00,46.8,46.8,30.00,SSE,152,0.0,0.0,100,0.00,,,0.00,VWS V14.01,2013-01-14 00:58:00,
2013-01-13 20:03:00,46.8,46.8,29.99,SSE,152,0.0,0.0,100,0.00,,,0.00,VWS V14.01,2013-01-14 01:03:00,
2013-01-13 20:08:00,46.7,46.7,30.00,SSE,152,0.0,0.0,100,0.00,,,0.00,VWS V14.01,2013-01-14 01:08:00,
2013-01-13 20:13:00,46.7,46.7,29.99,SSE,152,0.0,0.0,100,0.00,,,0.00,VWS V14.01,2013-01-14 01:13:00,
2013-01-13 20:18:00,46.6,46.6,29.99,SSE,152,0.0,3.0,100,0.00,,,0.00,VWS V14.01,2013-01-14 01:18:00,
2013-01-13 20:23:00,46.6,46.6,29.99,SSE,152,0.0,0.0,100,0.00,,,0.00,VWS V14.01,2013-01-14 01:23:00,
2013-01-13 20:28:00,46.7,46.7,29.99,SSE,152,0.0,0.0,100,0.00,,,0.00,VWS V14.01,2013-01-14 01:28:00,
2013-01-13 20:34:00,46.8,46.8,29.99,SSE,152,0.0,0.0,100,0.00,,,0.00,VWS V14.01,2013-01-14 01:34:00,
2013-01-13 20:39:00,46.9,46.9,29.99,SSE,152,0.0,0.0,100,0.00,,,0.00,VWS V14.01,2013-01-14 01:39:00,
2013-01-13 20:44:00,47.0,47.0,29.98,SSE,152,0.0,0.0,100,0.00,,,0.00,VWS V14.01,2013-01-14 01:44:00,
2013-01-13 20:49:00,47.0,47.0,29.98,SSE,152,0.0,0.0,100,0.00,,,0.00,VWS V14.01,2013-01-14 01:49:00,
2013-01-13 20:54:00,47.1,47.1,29.98,SSE,152,0.0,0.0,100,0.00,,,0.00,VWS V14.01,2013-01-14 01:54:00,
2013-01-13 20:59:00,47.1,47.1,29.98,SSE,152,0.0,0.0,100,0.00,,,0.00,VWS V14.01,2013-01-14 01:59:00,
2013-01-13 21:04:00,47.3,47.3,29.98,SSE,152,2.0,4.0,100,0.00,,,0.00,VWS V14.01,2013-01-14 02:04:00,
2013-01-13 21:09:00,47.5,47.5,29.98,SSE,152,4.0,5.0,100,0.00,,,0.00,VWS V14.01,2013-01-14 02:09:00,
2013-01-13 21:14:00,47.5,47.5,29.98,SSE,153,3.0,4.0,100,0.00,,,0.00,VWS V14.01,2013-01-14 02:14:00,
2013-01-13 21:19:00,47.7,47.7,29.97,SSE,153,4.0,5.0,100,0.00,,,0.00,VWS V14.01,2013-01-14 02:19:00,
2013-01-13 21:24:00,47.9,47.9,29.97,SSE,154,2.0,4.0,100,0.00,,,0.00,VWS V14.01,2013-01-14 02:24:00,
2013-01-13 21:29:00,48.2,48.2,29.98,SSE,154,3.0,6.0,100,0.00,,,0.00,VWS V14.01,2013-01-14 02:29:00,
2013-01-13 21:34:00,48.5,48.5,29.97,SSE,160,0.0,5.0,100,0.00,,,0.00,VWS V14.01,2013-01-14 02:34:00,
2013-01-13 21:39:00,48.4,48.4,29.97,SSE,160,0.0,0.0,100,0.00,,,0.00,VWS V14.01,2013-01-14 02:39:00,
2013-01-13 21:44:00,48.2,48.2,29.97,SSE,160,0.0,0.0,100,0.00,,,0.00,VWS V14.01,2013-01-14 02:44:00,
2013-01-13 21:49:00,48.1,48.1,29.97,SSE,160,0.0,0.0,100,0.00,,,0.00,VWS V14.01,2013-01-14 02:49:00,
2013-01-13 21:54:00,48.1,48.1,29.98,SSE,160,0.0,0.0,100,0.00,,,0.00,VWS V14.01,2013-01-14 02:54:00,
2013-01-13 21:59:00,48.0,48.0,29.97,SSE,160,0.0,0.0,100,0.00,,,0.00,VWS V14.01,2013-01-14 02:59:00,
2013-01-13 22:04:00,47.9,47.9,29.97,SSE,160,0.0,0.0,100,0.00,,,0.00,VWS V14.01,2013-01-14 03:04:00,
2013-01-13 22:09:00,47.7,47.7,29.97,SSE,160,0.0,0.0,100,0.00,,,0.00,VWS V14.01,2013-01-14 03:09:00,
2013-01-13 22:14:00,47.7,47.7,29.97,SSE,160,0.0,0.0,100,0.00,,,0.00,VWS V14.01,2013-01-14 03:14:00,
2013-01-13 22:19:00,47.6,47.6,29.97,SSE,161,0.0,0.0,100,0.00,,,0.00,VWS V14.01,2013-01-14 03:19:00,
2013-01-13 22:24:00,47.6,47.6,29.97,SSE,161,2.0,5.0,100,0.00,,,0.00,VWS V14.01,2013-01-14 03:24:00,
2013-01-13 22:29:00,47.6,47.6,29.97,South,177,4.0,6.0,100,0.00,,,0.00,VWS V14.01,2013-01-14 03:29:00,
2013-01-13 22:34:00,47.6,47.6,29.97,South,171,3.0,6.0,100,0.00,,,0.00,VWS V14.01,2013-01-14 03:34:00,
2013-01-13 22:39:00,47.7,47.7,29.97,SSE,157,6.0,6.0,100,0.00,,,0.00,VWS V14.01,2013-01-14 03:39:00,
2013-01-13 22:44:00,47.7,47.7,29.97,SSE,165,4.0,7.0,100,0.00,,,0.00,VWS V14.01,2013-01-14 03:44:00,
2013-01-13 22:49:00,47.6,47.6,29.97,South,181,6.0,6.0,100,0.00,,,0.00,VWS V14.01,2013-01-14 03:49:00,
2013-01-13 22:54:00,48.1,48.1,29.97,South,170,5.0,11.0,100,0.00,,,0.00,VWS V14.01,2013-01-14 03:54:00,
2013-01-13 22:59:00,48.5,48.5,29.97,South,190,9.0,11.0,100,0.00,,,0.00,VWS V14.01,2013-01-14 03:59:00,
2013-01-13 23:04:00,49.1,49.1,29.97,South,180,7.0,10.0,100,0.00,,,0.00,VWS V14.01,2013-01-14 04:04:00,
2013-01-13 23:09:00,49.5,49.5,29.97,South,177,8.0,10.0,100,0.00,,,0.00,VWS V14.01,2013-01-14 04:09:00,
2013-01-13 23:14:00,49.8,49.8,29.97,SSE,166,12.0,12.0,100,0.00,,,0.00,VWS V14.01,2013-01-14 04:14:00,
2013-01-13 23:19:00,50.2,50.2,29.97,South,176,6.0,14.0,100,0.00,,,0.00,VWS V14.01,2013-01-14 04:19:00,
2013-01-13 23:24:00,50.6,50.6,29.97,South,170,6.0,11.0,100,0.00,,,0.00,VWS V14.01,2013-01-14 04:24:00,
2013-01-13 23:29:00,51.0,51.0,29.97,SSE,159,6.0,10.0,100,0.00,,,0.00,VWS V14.01,2013-01-14 04:29:00,
2013-01-13 23:34:00,51.3,51.3,29.97,South,181,8.0,12.0,100,0.00,,,0.00,VWS V14.01,2013-01-14 04:34:00,
2013-01-13 23:39:00,51.3,51.3,29.97,SSE,164,5.0,11.0,100,0.00,,,0.00,VWS V14.01,2013-01-14 04:39:00,
2013-01-13 23:44:00,50.7,50.7,29.97,SSE,163,8.0,9.0,100,0.00,,,0.00,VWS V14.01,2013-01-14 04:44:00,
2013-01-13 23:50:00,50.3,50.3,29.97,South,173,6.0,10.0,100,0.00,,,0.00,VWS V14.01,2013-01-14 04:50:00,
2013-01-13 23:55:00,50.1,50.1,29.97,South,171,7.0,10.0,100,0.00,,,0.00,VWS V14.01,2013-01-14 04:55:00,